Location: Appletree Creek
(38.7363°N, 122.6833°W)
Time: 09:51:10
(UTC+00:00)

ADEOS Rocket - Pass Details

Date: 18 September 2020
Orbit: 858 x 1307 km, 98.7° (Epoch: 21 October)

Event Time Altitude Azimuth Distance (km) Brightness Sun altitude
Rises 12:46:49 0° 172° (S) 4,129 6.2 -14.1°
Reaches altitude 10° 12:49:34 10° 175° (S) 3,114 5.6 -13.5°
Maximum altitude 12:56:38 69° 258° (WSW) 1,179 3.2 -12.2°
Drops below altitude 10° 13:03:01 10° 341° (NNW) 2,817 5.3 -11.0°
Sets 13:05:25 0° 344° (NNW) 3,713 6.0 -10.5°
